Alma, MI

12:31 PM EDT on August 31, 2016 (GMT -0400)
Gratiot Community

Weather History for KAMN - May, 2013

Change the Weather History Date:

Wednesday, May 15, 2013

  Actual Average Record
Temperature  
Mean Temperature 66 °F -  
Max Temperature 78 °F 69 °F 89 °F (1962)
Min Temperature 51 °F 45 °F 32 °F (1973)
Growing Degree Days 16 (Base 50)    
Moisture  
Dew Point 47 °F    
Average Humidity 53    
Maximum Humidity 85    
Minimum Humidity 20    
Precipitation  
Precipitation 0.00 in - - ()
Sea Level Pressure  
Sea Level Pressure 29.70 in    
Wind  
Wind Speed 8 mph (West)    
Max Wind Speed 17 mph    
Max Gust Speed 23 mph    
Visibility 10 miles    
Events      
Averages and records for this station are not official NWS values.
T = Trace of Precipitation, MM = Missing Value Source: NWS Daily Summary

Daily Weather History Graph

Daily Weather History Graph

Search for Another Location

Airport or City:

Trip Planner

Search our weather history database for the weather conditions in past years. The results will help you decide how hot, cold, wet, or windy it might be!

Date:

Astronomy

May. 15, 2013 Rise Set
Actual Time 6:14 AM EDT 8:56 PM EDT
Civil Twilight 5:41 AM EDT 9:29 PM EDT
Nautical Twilight 5:00 AM EDT 10:11 PM EDT
Astronomical Twilight 4:12 AM EDT 10:58 PM EDT
Moon 10:50 AM EDT (5/15) 12:41 AM EDT (5/15)
Length of Visible Light 15h 48m
Length of Day
14h 42m
Waxing Crescent, 26% of the Moon is Illuminated
May 15
Waxing Crescent
May 18
First Quarter
May 25
Full
May 31
Last Quarter
Jun 8
New

Hourly Weather History & Observations

Time (EDT) Temp. Dew Point Humidity Pressure Visibility Wind Dir Wind Speed Gust Speed Precip Events Conditions
12:14 AM 57.0 °F 50.9 °F 80% 29.68 in 10.0 mi ESE 6.9 mph - N/A   Scattered Clouds
12:34 AM 56.5 °F 50.5 °F 80% 29.68 in 10.0 mi Calm Calm - N/A   Clear
12:54 AM 56.8 °F 50.9 °F 80% 29.65 in 10.0 mi ESE 6.9 mph - N/A   Scattered Clouds
1:14 AM 57.0 °F 50.9 °F 80% 29.65 in 10.0 mi SE 3.5 mph - N/A   Mostly Cloudy
1:34 AM 56.3 °F 50.9 °F 82% 29.64 in 10.0 mi SE 4.6 mph - N/A   Scattered Clouds
1:54 AM 55.8 °F 50.9 °F 84% 29.63 in 10.0 mi SE 3.5 mph - N/A   Clear
2:14 AM 55.8 °F 50.9 °F 84% 29.60 in 10.0 mi SE 6.9 mph - N/A   Clear
2:34 AM 55.9 °F 50.9 °F 83% 29.58 in 10.0 mi SE 5.8 mph - N/A   Clear
2:54 AM 55.8 °F 50.9 °F 84% 29.58 in 10.0 mi SE 4.6 mph - N/A   Clear
3:14 AM 55.4 °F 51.1 °F 85% 29.57 in 10.0 mi North - - N/A   Clear
3:34 AM 56.3 °F 51.6 °F 84% 29.56 in 10.0 mi North - - N/A   Clear
3:54 AM 57.7 °F 52.3 °F 82% 29.56 in 10.0 mi South 5.8 mph - N/A   Clear
4:14 AM 57.2 °F 52.7 °F 85% 29.55 in 10.0 mi South 8.1 mph - N/A   Clear
4:34 AM 59.2 °F 54.1 °F 83% 29.54 in 10.0 mi South 8.1 mph - N/A   Clear
4:54 AM 59.9 °F 54.7 °F 83% 29.53 in 10.0 mi South 8.1 mph - N/A   Clear
5:13 AM 61.3 °F 55.4 °F 81% 29.53 in 10.0 mi SSW 6.9 mph - N/A   Clear
5:34 AM 63.9 °F 56.3 °F 76% 29.54 in 10.0 mi North - - N/A   Clear
5:54 AM 64.4 °F 56.3 °F 75% 29.54 in 10.0 mi North - - N/A   Clear
6:14 AM 65.5 °F 56.1 °F 72% 29.55 in 10.0 mi North - - N/A   Clear
6:34 AM 65.5 °F 55.8 °F 71% 29.56 in 10.0 mi WSW 11.5 mph 17.3 mph N/A   Clear
6:54 AM 65.3 °F 55.0 °F 69% 29.58 in 10.0 mi West 9.2 mph 16.1 mph N/A   Clear
7:13 AM 65.3 °F 53.8 °F 66% 29.59 in 10.0 mi West 11.5 mph - N/A   Clear
7:34 AM 65.5 °F 53.1 °F 64% 29.61 in 10.0 mi West 11.5 mph 17.3 mph N/A   Clear
7:54 AM 65.8 °F 52.7 °F 62% 29.62 in 10.0 mi North - - N/A   Clear
8:14 AM 66.6 °F 52.0 °F 59% 29.63 in 10.0 mi West 12.7 mph - N/A   Clear
8:34 AM 67.3 °F 51.4 °F 57% 29.64 in 10.0 mi West 9.2 mph - N/A   Clear
8:54 AM 68.0 °F 50.2 °F 53% 29.65 in 10.0 mi WNW 8.1 mph 18.4 mph N/A   Clear
9:14 AM 68.7 °F 49.6 °F 51% 29.67 in 10.0 mi West 13.8 mph - N/A   Clear
9:34 AM 68.7 °F 47.7 °F 47% 29.68 in 10.0 mi NW 15.0 mph - N/A   Clear
9:54 AM 69.4 °F 48.4 °F 47% 29.68 in 10.0 mi North - - N/A   Clear
10:15 AM 70.0 °F 48.4 °F 46% 29.69 in 10.0 mi North - - N/A   Clear
10:34 AM 70.9 °F 47.7 °F 44% 29.70 in 10.0 mi West 15.0 mph - N/A   Clear
10:54 AM 71.6 °F 47.8 °F 43% 29.71 in 10.0 mi West 13.8 mph - N/A   Clear
11:14 AM 72.3 °F 47.7 °F 41% 29.72 in 10.0 mi North - - N/A   Clear
11:34 AM 73.0 °F 48.0 °F 41% 29.73 in 10.0 mi West 13.8 mph - N/A   Clear
11:54 AM 72.9 °F 47.5 °F 40% 29.74 in 10.0 mi North - - N/A   Clear
12:14 PM 73.6 °F 47.7 °F 40% 29.75 in 10.0 mi North - - N/A   Clear
12:34 PM 74.3 °F 47.7 °F 39% 29.75 in 10.0 mi West 17.3 mph - N/A   Clear
12:54 PM 74.7 °F 47.5 °F 38% 29.75 in 10.0 mi WNW 17.3 mph - N/A   Clear
1:15 PM 75.6 °F 46.2 °F 35% 29.75 in 10.0 mi West 15.0 mph - N/A   Clear
1:34 PM 75.9 °F 48.0 °F 37% 29.75 in 10.0 mi North - - N/A   Clear
1:54 PM 76.1 °F 47.5 °F 36% 29.76 in 10.0 mi West 17.3 mph 23.0 mph N/A   Clear
2:14 PM 76.1 °F 45.0 °F 33% 29.75 in 10.0 mi WNW 15.0 mph - N/A   Clear
2:34 PM 76.8 °F 44.8 °F 32% 29.76 in 10.0 mi West 15.0 mph 20.7 mph N/A   Clear
2:54 PM 75.4 °F 44.8 °F 34% 29.76 in 10.0 mi WNW 11.5 mph 17.3 mph N/A   Clear
3:14 PM 76.8 °F 43.7 °F 31% 29.75 in 10.0 mi West 13.8 mph 17.3 mph N/A   Clear
3:34 PM 77.2 °F 40.8 °F 27% 29.75 in 10.0 mi NW 11.5 mph - N/A   Clear
3:54 PM 77.0 °F 39.6 °F 26% 29.75 in 10.0 mi WNW 8.1 mph - N/A   Clear
4:15 PM 77.5 °F 39.7 °F 26% 29.75 in 10.0 mi West 9.2 mph 19.6 mph N/A   Clear
4:34 PM 78.1 °F 39.4 °F 25% 29.76 in 10.0 mi WNW 10.4 mph 20.7 mph N/A   Clear
4:54 PM 78.3 °F 34.2 °F 20% 29.75 in 10.0 mi West 12.7 mph 19.6 mph N/A   Clear
5:14 PM 77.0 °F 33.1 °F 20% 29.75 in 10.0 mi West 9.2 mph 17.3 mph N/A   Clear
5:34 PM 77.0 °F 36.9 °F 23% 29.76 in 10.0 mi NW 12.7 mph 19.6 mph N/A   Clear
5:54 PM 77.0 °F 38.8 °F 25% 29.76 in 10.0 mi West 6.9 mph - N/A   Clear
6:15 PM 75.9 °F 35.8 °F 23% 29.75 in 10.0 mi West 6.9 mph - N/A   Clear
6:34 PM 74.5 °F 36.5 °F 25% 29.75 in 10.0 mi NW 6.9 mph - N/A   Clear
6:54 PM 75.2 °F 34.7 °F 23% 29.76 in 10.0 mi WNW 13.8 mph - N/A   Clear
7:14 PM 73.0 °F 35.1 °F 25% 29.78 in 10.0 mi North - - N/A   Clear
7:34 PM 72.7 °F 34.5 °F 25% 29.78 in 10.0 mi North - - N/A   Clear
7:54 PM 71.6 °F 36.3 °F 28% 29.79 in 10.0 mi North - - N/A   Clear
8:14 PM 70.3 °F 37.4 °F 30% 29.78 in 10.0 mi North - - N/A   Mostly Cloudy
8:35 PM 69.6 °F 39.4 °F 33% 29.78 in 10.0 mi North - - N/A   Scattered Clouds
8:54 PM 68.2 °F 41.5 °F 38% 29.79 in 10.0 mi North - - N/A   Mostly Cloudy
9:15 PM 66.2 °F 42.8 °F 43% 29.80 in 10.0 mi North - - N/A   Scattered Clouds
9:34 PM 65.5 °F 42.8 °F 44% 29.81 in 10.0 mi West 3.5 mph - N/A   Mostly Cloudy
9:54 PM 63.3 °F 42.6 °F 47% 29.81 in 10.0 mi WSW 3.5 mph - N/A   Scattered Clouds
10:14 PM 60.4 °F 43.5 °F 54% 29.82 in 10.0 mi North - - N/A   Clear
10:34 PM 57.9 °F 44.1 °F 60% 29.82 in 10.0 mi North - - N/A   Clear
10:54 PM 54.9 °F 46.4 °F 73% 29.82 in 10.0 mi Calm Calm - N/A   Clear
11:15 PM 53.4 °F 47.1 °F 79% 29.82 in 10.0 mi Calm Calm - N/A   Clear
11:34 PM 53.1 °F 47.3 °F 81% 29.82 in 10.0 mi North - - N/A   Clear
11:54 PM 51.8 °F 46.6 °F 82% 29.82 in 10.0 mi North - - N/A   Clear